TimeCST,TemperatureF,Dew PointF,Humidity,Sea Level PressureIn,VisibilityMPH,Wind Direction,Wind SpeedMPH,Gust SpeedMPH,PrecipitationIn,Events,Conditions,WindDirDegrees,DateUTC
12:54 AM,28.0,24.1,85,30.00,10.0,NNW,17.3,-,0.00,,Overcast,330,2011-11-20 06:54:00
1:54 AM,27.0,23.0,85,30.06,10.0,NNW,16.1,28.8,N/A,,Overcast,330,2011-11-20 07:54:00
2:54 AM,26.1,21.0,81,30.09,10.0,North,13.8,-,N/A,,Overcast,350,2011-11-20 08:54:00
3:54 AM,25.0,19.0,78,30.12,10.0,NNW,16.1,-,N/A,,Overcast,340,2011-11-20 09:54:00
4:54 AM,25.0,19.0,78,30.16,10.0,NNW,9.2,-,N/A,,Overcast,340,2011-11-20 10:54:00
6:54 AM,24.1,18.0,77,30.22,10.0,North,10.4,-,N/A,,Overcast,360,2011-11-20 12:54:00
7:54 AM,24.1,19.0,81,30.27,10.0,NW,4.6,-,N/A,,Overcast,320,2011-11-20 13:54:00
8:54 AM,25.0,19.0,78,30.31,10.0,NNW,6.9,-,N/A,,Overcast,330,2011-11-20 14:54:00
9:54 AM,24.1,19.0,81,30.32,10.0,NNW,8.1,-,N/A,,Overcast,340,2011-11-20 15:54:00
10:54 AM,24.1,19.0,81,30.34,10.0,NNW,8.1,-,N/A,,Overcast,330,2011-11-20 16:54:00
11:54 AM,24.1,19.0,81,30.35,10.0,NW,4.6,-,N/A,,Overcast,310,2011-11-20 17:54:00
12:54 PM,25.0,19.9,81,30.35,10.0,NNW,4.6,-,N/A,,Overcast,330,2011-11-20 18:54:00
1:54 PM,25.0,19.0,78,30.35,10.0,NW,4.6,-,N/A,,Overcast,310,2011-11-20 19:54:00
2:54 PM,25.0,17.1,72,30.36,10.0,West,3.5,-,N/A,,Overcast,280,2011-11-20 20:54:00
3:54 PM,24.1,17.1,75,30.36,10.0,NW,5.8,-,N/A,,Overcast,320,2011-11-20 21:54:00
4:54 PM,24.1,15.1,69,30.38,10.0,WNW,5.8,-,N/A,,Overcast,290,2011-11-20 22:54:00
5:54 PM,24.1,15.1,69,30.39,10.0,Calm,Calm,-,N/A,,Overcast,0,2011-11-20 23:54:00
6:54 PM,23.0,17.1,78,30.39,10.0,Calm,Calm,-,N/A,,Overcast,0,2011-11-21 00:54:00
7:54 PM,23.0,18.0,81,30.39,10.0,Calm,Calm,-,N/A,,Overcast,0,2011-11-21 01:54:00
8:54 PM,21.9,18.0,85,30.38,10.0,Calm,Calm,-,N/A,,Overcast,0,2011-11-21 02:54:00
9:54 PM,23.0,18.0,81,30.38,10.0,Calm,Calm,-,N/A,,Overcast,0,2011-11-21 03:54:00
10:54 PM,23.0,17.1,78,30.38,10.0,South,5.8,-,N/A,,Overcast,180,2011-11-21 04:54:00
11:54 PM,23.0,17.1,78,30.38,10.0,Calm,Calm,-,N/A,,Overcast,0,2011-11-21 05:54:00